Temp
-11 -10 -10 -10 -10 -10 -10 -10 -10 -11 -11 -11 -10 -10 -11 -11 -11 -12 -13 -13 -13 -14 -14 -14 -14 -14 -15 -15 -15 -15 -15 -15 -14 -15 -15 -15 -15 -14 -14 -14 -14 -13 -13 -13 -13 -13 -13 -14 -14 -14 -15 -15 -14 -14
-11 -11 -11 -11 -10 -10 -10 -11 -11 -11 -11 -11 -11 -11 -12 -12 -11 -12 -13 -13 -14 -14 -14 -14 -14 -15 -15 -15 -15 -15 -15 -15 -14 -14 -15 -14 -14 -14 -14 -14 -13 -13 -13 -13 -14 -14 -14 -14 -15 -15 -15 -15 -15 -15
-11 -11 -11 -11 -10 -10 -10 -11 -11 -11 -11 -11 -11 -11 -12 -12 -12 -12 -12 -12 -12 -13 -13 -13 -13 -14 -14 -15 -16 -15 -14 -14 -14 -14 -14 -14 -14 -14 -14 -14 -13 -13 -13 -14 -14 -14 -15 -15 -16 -16 -16 -16 -16 -16
-11 -11 -11 -11 -11 -11 -11 -11 -11 -11 -11 -11 -11 -12 -13 -13 -13 -12 -12 -13 -12 -13 -13 -13 -14 -14 -14 -14 -14 -14 -15 -15 -15 -14 -13 -14 -14 -13 -13 -13 -14 -14 -14 -14 -14 -14 -14 -15 -15 -15 -16 -16 -16 -16
-11 -11 -10 -10 -11 -11 -11 -11 -11 -11 -11 -11 -11 -12 -13 -13 -13 -13 -13 -13 -13 -13 -13 -13 -13 -13 -14 -14 -14 -14 -14 -14 -14 -13 -14 -13 -13 -14 -14 -14 -14 -14 -14 -14 -14 -15 -15 -15 -16 -16 -16 -16 -17 -17
-11 -11 -11 -11 -11 -11 -11 -11 -11 -11 -11 -11 -11 -13 -13 -13 -13 -13 -13 -13 -12 -13 -13 -13 -13 -13 -13 -13 -13 -13 -14 -13 -13 -13 -13 -13 -13 -13 -13 -13 -14 -14 -14 -15 -15 -15 -15 -16 -17 -16 -17 -17 -17 -18
-11 -11 -11 -11 -11 -11 -11 -11 -11 -11 -12 -12 -12 -13 -13 -13 -13 -13 -13 -13 -13 -13 -12 -12 -12 -12 -12 -12 -13 -13 -13 -13 -13 -13 -13 -13 -13 -13 -14 -14 -14 -14 -15 -15 -15 -16 -16 -16 -16 -17 -17 -17 -18 -18
-11 -11 -11 -11 -11 -11 -11 -11 -11 -12 -12 -12 -12 -13 -13 -13 -13 -13 -13 -12 -13 -12 -12 -12 -13 -12 -13 -12 -13 -13 -13 -13 -12 -13 -13 -13 -13 -14 -14 -14 -15 -15 -15 -15 -16 -16 -16 -16 -16 -17 -17 -18 -18 -19
-11 -11 -11 -11 -11 -10 -11 -11 -11 -12 -12 -12 -13 -13 -13 -13 -13 -13 -13 -13 -13 -13 -13 -13 -13 -13 -13 -13 -13 -13 -13 -13 -13 -13 -13 -13 -14 -14 -14 -14 -15 -15 -15 -15 -16 -16 -16 -17 -16 -17 -17 -18 -19 -19
-11 -11 -11 -11 -11 -11 -11 -11 -12 -13 -13 -13 -13 -14 -13 -13 -13 -13 -13 -13 -13 -13 -13 -13 -12 -12 -12 -12 -13 -13 -13 -13 -13 -13 -13 -13 -14 -14 -14 -15 -15 -15 -15 -16 -16 -16 -16 -16 -16 -17 -18 -19 -19 -19
-11 -11 -11 -11 -11 -11 -11 -12 -12 -13 -13 -13 -14 -14 -14 -14 -13 -14 -13 -13 -13 -13 -13 -13 -12 -12 -12 -13 -13 -13 -13 -13 -13 -13 -13 -14 -14 -14 -15 -15 -15 -15 -15 -16 -16 -16 -16 -16 -16 -17 -18 -20 -19 -19
-11 -11 -11 -11 -11 -11 -12 -12 -12 -13 -13 -13 -14 -14 -14 -14 -14 -14 -13 -13 -13 -13 -13 -13 -12 -13 -13 -13 -13 -13 -13 -13 -13 -13 -13 -14 -14 -14 -14 -15 -15 -15 -15 -16 -16 -16 -16 -16 -16 -17 -18 -19 -19 -19
-11 -11 -11 -11 -11 -12 -12 -13 -13 -14 -14 -14 -14 -15 -14 -14 -14 -14 -14 -14 -13 -13 -13 -13 -13 -13 -13 -13 -13 -13 -13 -13 -14 -14 -14 -14 -14 -14 -14 -15 -15 -15 -15 -16 -16 -16 -16 -16 -16 -16 -17 -18 -19 -19
-11 -12 -12 -11 -11 -12 -12 -13 -13 -15 -14 -14 -14 -15 -14 -14 -14 -14 -14 -13 -13 -13 -13 -13 -13 -13 -13 -13 -13 -13 -13 -13 -14 -14 -14 -14 -14 -14 -14 -14 -15 -15 -15 -15 -16 -16 -16 -16 -16 -16 -16 -17 -18 -18
-12 -12 -12 -12 -12 -12 -12 -13 -14 -14 -14 -14 -14 -15 -15 -15 -15 -14 -14 -14 -13 -13 -13 -13 -13 -13 -13 -13 -14 -14 -14 -14 -14 -14 -14 -14 -14 -14 -14 -14 -14 -15 -15 -15 -15 -16 -16 -16 -16 -17 -17 -17 -17 -17
-12 -13 -12 -12 -12 -13 -13 -13 -15 -14 -14 -14 -15 -15 -15 -15 -15 -15 -14 -14 -14 -13 -13 -13 -13 -14 -13 -14 -14 -14 -14 -14 -14 -14 -14 -14 -14 -14 -14 -14 -14 -15 -15 -15 -15 -15 -16 -16 -16 -16 -16 -16 -17 -17
-13 -13 -12 -12 -13 -13 -13 -15 -15 -14 -14 -15 -15 -15 -15 -15 -15 -15 -14 -14 -13 -13 -13 -13 -14 -14 -14 -13 -14 -13 -14 -14 -14 -14 -14 -14 -14 -14 -14 -14 -15 -15 -15 -15 -15 -15 -15 -16 -16 -16 -16 -16 -16 -16
-13 -13 -13 -13 -13 -14 -15 -15 -14 -15 -15 -16 -16 -15 -15 -15 -15 -15 -14 -14 -13 -13 -12 -13 -13 -13 -13 -13 -13 -14 -14 -14 -14 -14 -14 -14 -14 -14 -14 -14 -15 -15 -15 -15 -15 -15 -16 -16 -16 -16 -16 -16 -16 -17
-13 -13 -13 -13 -14 -15 -15 -15 -15 -16 -16 -16 -15 -15 -15 -15 -15 -15 -14 -14 -13 -13 -13 -13 -13 -14 -14 -13 -13 -13 -14 -14 -14 -14 -15 -15 -14 -14 -14 -14 -14 -15 -15 -15 -15 -15 -16 -16 -16 -16 -16 -16 -17 -17
-14 -14 -14 -14 -15 -15 -15 -15 -15 -16 -16 -15 -15 -15 -15 -15 -15 -15 -14 -14 -13 -13 -12 -13 -14 -13 -13 -13 -14 -14 -14 -15 -14 -14 -14 -14 -15 -14 -14 -14 -14 -15 -15 -15 -15 -15 -16 -16 -16 -16 -16 -16 -17 -17
-14 -15 -15 -16 -15 -15 -15 -16 -15 -15 -15 -16 -16 -16 -15 -15 -15 -15 -14 -13 -13 -13 -13 -14 -13 -13 -13 -13 -14 -14 -14 -14 -14 -14 -14 -15 -15 -15 -14 -14 -15 -15 -14 -15 -15 -15 -16 -16 -16 -16 -16 -17 -17 -17
-15 -16 -16 -16 -15 -16 -16 -15 -15 -15 -16 -15 -16 -16 -15 -15 -14 -14 -13 -13 -13 -13 -13 -13 -13 -13 -13 -13 -13 -14 -14 -14 -14 -14 -14 -15 -14 -14 -15 -15 -15 -14 -14 -15 -15 -15 -16 -16 -16 -16 -16 -17 -17 -16
-17 -16 -16 -16 -16 -15 -15 -15 -15 -15 -16 -15 -16 -15 -15 -15 -14 -14 -14 -13 -13 -13 -13 -13 -13 -13 -14 -14 -14 -14 -14 -14 -14 -14 -15 -15 -15 -15 -15 -14 -14 -14 -15 -15 -15 -15 -16 -16 -16 -16 -17 -17 -17 -17
-16 -16 -16 -16 -16 -16 -16 -15 -16 -16 -16 -15 -15 -15 -15 -15 -14 -14 -14 -13 -13 -13 -13 -13 -13 -14 -14 -14 -14 -14 -14 -14 -14 -15 -14 -14 -15 -14 -14 -14 -15 -15 -15 -15 -15 -15 -15 -16 -16 -16 -16 -16 -16 -16
-16 -16 -16 -16 -16 -16 -16 -16 -16 -16 -16 -15 -15 -15 -15 -15 -14 -14 -14 -14 -14 -13 -13 -13 -13 -13 -14 -14 -14 -14 -14 -14 -15 -15 -15 -15 -14 -14 -14 -15 -15 -15 -15 -15 -16 -16 -16 -16 -16 -16 -16 -16 -16 -16
-16 -16 -16 -16 -16 -16 -16 -16 -16 -15 -15 -15 -15 -15 -15 -14 -14 -14 -14 -14 -13 -14 -14 -13 -13 -13 -13 -13 -14 -14 -14 -14 -14 -14 -14 -14 -15 -15 -15 -15 -15 -15 -15 -15 -15 -16 -15 -16 -16 -16 -16 -16 -16 -16
-16 -16 -16 -16 -15 -15 -16 -15 -15 -15 -15 -16 -15 -15 -14 -14 -14 -14 -14 -14 -14 -14 -13 -13 -13 -13 -14 -14 -14 -14 -15 -14 -14 -14 -14 -14 -15 -15 -15 -15 -15 -15 -15 -15 -15 -15 -15 -15 -15 -16 -16 -16 -16 -16
-16 -16 -16 -15 -15 -15 -15 -15 -15 -15 -15 -15 -15 -15 -14 -14 -14 -14 -14 -14 -14 -14 -13 -13 -13 -13 -13 -14 -14 -14 -13 -13 -13 -14 -15 -15 -15 -15 -14 -14 -14 -15 -15 -15 -15 -15 -15 -15 -15 -15 -16 -16 -16 -16
-16 -16 -16 -16 -15 -16 -15 -15 -15 -15 -15 -15 -15 -15 -14 -14 -14 -14 -14 -14 -14 -14 -13 -13 -13 -13 -13 -13 -13 -14 -14 -14 -14 -14 -14 -14 -14 -14 -14 -14 -14 -15 -15 -15 -15 -15 -15 -15 -15 -15 -16 -16 -16 -16
-16 -16 -16 -16 -16 -16 -15 -15 -15 -15 -15 -15 -14 -14 -14 -14 -14 -14 -14 -13 -13 -13 -13 -13 -14 -13 -13 -13 -13 -13 -13 -14 -14 -14 -15 -15 -15 -15 -14 -14 -14 -15 -15 -15 -15 -15 -15 -15 -15 -16 -16 -16 -15 -16
-16 -16 -16 -16 -16 -16 -16 -16 -16 -16 -15 -15 -14 -14 -14 -14 -14 -14 -14 -13 -13 -14 -14 -14 -13 -13 -13 -14 -14 -14 -14 -14 -14 -14 -14 -14 -14 -14 -14 -15 -14 -14 -15 -15 -15 -15 -15 -15 -15 -15 -15 -15 -15 -15
-17 -17 -16 -16 -16 -16 -16 -16 -16 -15 -15 -15 -15 -14 -14 -14 -14 -14 -13 -14 -14 -14 -14 -14 -14 -14 -14 -14 -14 -14 -14 -14 -14 -14 -14 -14 -15 -15 -14 -14 -14 -14 -14 -15 -15 -15 -15 -15 -15 -15 -15 -15 -15 -15
-17 -17 -17 -16 -16 -16 -16 -16 -15 -15 -15 -15 -14 -14 -14 -14 -14 -14 -14 -13 -14 -14 -13 -14 -14 -14 -14 -14 -14 -14 -14 -14 -14 -14 -14 -14 -14 -14 -14 -14 -14 -14 -14 -14 -14 -14 -15 -15 -15 -15 -15 -15 -15 -15
Height
5794 5794 5793 5791 5789 5786 5783 5780 5778 5775 5773 5771 5767 5764 5762 5760 5759 5759 5758 5757 5758 5758 5760 5762 5766 5769 5772 5778 5782 5788 5791 5794 5797 5799 5801 5802 5803 5803 5804 5804 5803 5803 5803 5803 5803 5802 5802 5800 5798 5797 5795 5793 5793 5792
5787 5787 5786 5785 5782 5780 5777 5774 5772 5770 5768 5766 5763 5760 5759 5757 5757 5758 5757 5757 5757 5758 5761 5761 5763 5765 5769 5773 5777 5782 5786 5791 5794 5795 5796 5797 5797 5798 5798 5797 5796 5797 5797 5796 5797 5795 5793 5791 5789 5787 5786 5785 5782 5780
5781 5780 5779 5778 5776 5773 5771 5768 5766 5764 5763 5760 5759 5756 5756 5755 5755 5756 5756 5755 5756 5756 5758 5759 5761 5763 5766 5769 5772 5776 5782 5786 5787 5790 5791 5792 5792 5793 5793 5792 5791 5790 5790 5789 5789 5788 5786 5784 5782 5780 5777 5775 5772 5768
5774 5773 5771 5769 5768 5766 5764 5762 5761 5759 5758 5756 5754 5753 5753 5753 5752 5753 5754 5755 5755 5757 5758 5760 5760 5761 5763 5765 5767 5771 5776 5781 5783 5786 5788 5788 5788 5788 5788 5787 5786 5787 5785 5784 5783 5781 5779 5776 5773 5771 5768 5764 5759 5754
5767 5766 5765 5763 5761 5759 5758 5757 5756 5754 5753 5752 5750 5749 5750 5751 5749 5749 5752 5753 5755 5758 5758 5759 5761 5762 5763 5766 5769 5772 5775 5778 5780 5783 5785 5785 5785 5784 5783 5783 5782 5781 5779 5778 5777 5775 5771 5769 5765 5762 5758 5754 5748 5744
5761 5760 5758 5756 5754 5753 5752 5751 5751 5749 5749 5748 5746 5746 5747 5748 5748 5747 5750 5752 5753 5754 5757 5758 5761 5763 5764 5767 5770 5772 5774 5776 5779 5781 5781 5781 5781 5781 5780 5779 5778 5776 5776 5774 5773 5769 5765 5762 5759 5754 5749 5743 5738 5733
5754 5753 5752 5751 5750 5748 5748 5747 5746 5745 5745 5745 5744 5744 5745 5746 5747 5748 5750 5752 5752 5754 5757 5759 5761 5763 5765 5767 5769 5771 5773 5776 5777 5778 5779 5780 5779 5778 5777 5776 5775 5774 5772 5771 5768 5764 5761 5756 5751 5746 5739 5732 5726 5722
5747 5748 5747 5746 5746 5744 5743 5742 5741 5741 5741 5741 5741 5741 5742 5744 5746 5748 5749 5750 5752 5754 5756 5759 5761 5762 5764 5766 5768 5770 5773 5774 5776 5777 5777 5777 5775 5774 5773 5772 5771 5770 5768 5766 5762 5757 5752 5747 5742 5735 5729 5722 5716 5714
5740 5740 5741 5741 5740 5739 5738 5737 5737 5736 5737 5737 5738 5739 5740 5742 5744 5746 5748 5750 5752 5755 5756 5758 5760 5762 5764 5766 5768 5770 5771 5773 5774 5774 5774 5774 5772 5771 5770 5769 5767 5765 5763 5760 5755 5750 5744 5740 5734 5728 5720 5713 5709 5707
5733 5734 5735 5734 5733 5733 5732 5732 5733 5732 5734 5734 5734 5736 5737 5739 5741 5743 5746 5749 5751 5752 5753 5756 5758 5760 5763 5764 5766 5768 5769 5771 5771 5772 5771 5770 5769 5769 5767 5766 5765 5763 5760 5755 5750 5746 5742 5735 5728 5722 5714 5708 5705 5702
5725 5727 5728 5728 5727 5726 5727 5726 5727 5727 5730 5731 5730 5732 5734 5735 5738 5740 5744 5747 5749 5750 5751 5754 5757 5759 5761 5763 5764 5766 5767 5769 5769 5770 5769 5768 5767 5766 5766 5764 5762 5760 5756 5752 5747 5743 5738 5732 5725 5717 5709 5704 5702 5700
5718 5719 5721 5721 5720 5720 5720 5720 5721 5723 5726 5727 5728 5728 5730 5733 5735 5739 5741 5744 5746 5748 5750 5752 5755 5757 5758 5760 5762 5764 5765 5766 5767 5767 5766 5765 5764 5764 5763 5762 5760 5757 5753 5749 5744 5739 5734 5729 5722 5716 5708 5702 5700 5698
5710 5712 5713 5714 5714 5714 5713 5714 5715 5718 5721 5723 5724 5725 5727 5729 5732 5736 5738 5741 5743 5745 5748 5751 5754 5755 5757 5759 5760 5761 5762 5763 5764 5764 5763 5763 5762 5762 5761 5759 5757 5754 5750 5746 5741 5737 5732 5728 5723 5717 5709 5703 5699 5697
5702 5704 5706 5707 5707 5708 5707 5708 5710 5713 5716 5719 5721 5722 5724 5726 5729 5732 5734 5737 5740 5743 5745 5748 5750 5753 5755 5756 5757 5758 5759 5760 5760 5760 5760 5760 5759 5759 5759 5757 5754 5751 5748 5744 5740 5735 5730 5726 5722 5717 5712 5706 5701 5697
5693 5696 5699 5699 5700 5701 5701 5702 5704 5708 5712 5715 5718 5719 5721 5723 5725 5728 5732 5735 5736 5739 5742 5745 5747 5750 5750 5752 5753 5755 5756 5756 5756 5757 5757 5757 5757 5756 5756 5755 5753 5749 5745 5742 5738 5734 5730 5727 5722 5717 5713 5709 5705 5701
5685 5689 5692 5692 5693 5694 5695 5696 5700 5704 5707 5710 5713 5715 5717 5719 5722 5724 5727 5730 5733 5736 5738 5741 5743 5745 5746 5748 5750 5751 5752 5752 5753 5752 5753 5754 5754 5753 5753 5752 5750 5747 5743 5739 5736 5732 5729 5726 5723 5719 5715 5711 5708 5704
5678 5682 5683 5685 5687 5688 5689 5692 5697 5700 5703 5707 5709 5711 5713 5716 5719 5721 5724 5727 5729 5732 5735 5737 5739 5741 5743 5744 5745 5746 5747 5748 5747 5747 5749 5750 5751 5751 5750 5749 5747 5744 5742 5738 5734 5731 5727 5725 5722 5719 5716 5713 5710 5707
5670 5672 5675 5678 5680 5682 5684 5690 5694 5697 5700 5702 5703 5707 5710 5713 5715 5718 5721 5725 5727 5729 5731 5733 5735 5738 5739 5741 5742 5744 5744 5746 5746 5746 5745 5745 5746 5746 5746 5745 5743 5742 5741 5737 5733 5731 5727 5723 5720 5717 5714 5712 5710 5707
5661 5664 5667 5671 5674 5677 5683 5687 5691 5693 5694 5696 5701 5704 5707 5710 5713 5715 5719 5722 5724 5727 5729 5731 5734 5735 5736 5737 5739 5740 5741 5741 5741 5741 5740 5740 5741 5742 5742 5742 5740 5739 5738 5735 5731 5729 5725 5722 5719 5716 5713 5711 5709 5707
5654 5657 5661 5664 5669 5675 5680 5685 5687 5689 5692 5696 5700 5702 5705 5707 5710 5713 5717 5720 5722 5724 5727 5729 5729 5730 5732 5733 5734 5736 5736 5738 5738 5737 5737 5734 5737 5739 5739 5739 5736 5735 5734 5732 5729 5726 5723 5720 5718 5715 5712 5711 5709 5707
5647 5651 5656 5662 5668 5674 5678 5680 5684 5688 5691 5693 5697 5700 5702 5705 5708 5711 5713 5716 5720 5722 5723 5724 5727 5728 5728 5729 5729 5730 5730 5731 5732 5732 5732 5732 5734 5734 5735 5735 5733 5732 5731 5729 5727 5724 5722 5719 5717 5715 5713 5711 5709 5707
5643 5649 5656 5662 5667 5672 5675 5678 5683 5687 5690 5692 5695 5697 5700 5703 5705 5708 5711 5715 5716 5718 5721 5722 5723 5724 5724 5723 5723 5723 5723 5723 5724 5725 5726 5726 5728 5730 5731 5732 5730 5729 5727 5726 5725 5722 5720 5718 5716 5714 5712 5710 5708 5705
5646 5652 5657 5662 5667 5670 5674 5677 5681 5684 5687 5690 5693 5695 5698 5700 5703 5707 5710 5711 5714 5716 5718 5719 5720 5720 5719 5718 5718 5718 5718 5718 5718 5720 5720 5721 5723 5726 5728 5727 5726 5726 5725 5724 5723 5721 5718 5717 5714 5713 5711 5709 5706 5703
5648 5653 5657 5661 5665 5669 5672 5675 5679 5682 5685 5688 5690 5693 5696 5699 5702 5705 5707 5710 5713 5714 5715 5715 5715 5714 5714 5712 5712 5714 5715 5715 5715 5715 5711 5713 5720 5722 5723 5723 5724 5724 5724 5723 5722 5720 5717 5715 5712 5711 5709 5707 5704 5701
5650 5654 5658 5661 5664 5668 5671 5674 5677 5680 5683 5685 5688 5691 5695 5697 5700 5703 5706 5709 5710 5711 5712 5712 5711 5711 5710 5709 5710 5712 5712 5712 5713 5713 5715 5717 5719 5719 5719 5720 5723 5723 5722 5721 5720 5718 5717 5715 5712 5710 5707 5705 5703 5700
5649 5652 5656 5659 5662 5666 5669 5672 5674 5677 5680 5684 5687 5690 5694 5697 5699 5702 5704 5706 5708 5709 5709 5708 5708 5707 5707 5707 5707 5708 5709 5708 5710 5710 5712 5714 5716 5718 5719 5719 5719 5720 5719 5718 5716 5715 5714 5712 5709 5708 5706 5704 5701 5698
5648 5651 5654 5657 5661 5664 5667 5669 5672 5676 5679 5682 5685 5689 5692 5695 5698 5700 5703 5704 5705 5706 5705 5705 5705 5705 5705 5705 5703 5705 5705 5706 5707 5709 5711 5713 5715 5717 5718 5718 5717 5717 5716 5714 5713 5712 5710 5709 5707 5706 5704 5701 5698 5695
5645 5648 5651 5655 5657 5661 5664 5667 5671 5674 5677 5681 5684 5687 5691 5693 5696 5698 5700 5701 5702 5703 5703 5703 5702 5702 5703 5704 5703 5703 5705 5706 5706 5708 5710 5712 5714 5716 5717 5714 5713 5712 5712 5710 5710 5710 5708 5708 5706 5703 5700 5697 5695 5691
5644 5647 5650 5653 5656 5659 5663 5666 5669 5672 5675 5679 5682 5686 5689 5691 5694 5696 5696 5698 5700 5701 5701 5701 5701 5700 5700 5700 5702 5703 5702 5704 5705 5705 5706 5708 5709 5711 5711 5711 5711 5710 5709 5708 5708 5708 5706 5703 5701 5699 5696 5695 5692 5688
5642 5644 5647 5651 5654 5656 5659 5662 5666 5670 5674 5678 5681 5684 5687 5689 5692 5695 5696 5697 5697 5699 5699 5699 5699 5699 5698 5698 5700 5701 5701 5702 5703 5704 5705 5707 5708 5709 5709 5709 5709 5708 5707 5707 5706 5705 5703 5700 5698 5695 5693 5691 5688 5685
5639 5642 5645 5648 5651 5655 5659 5663 5666 5669 5672 5674 5678 5682 5685 5688 5690 5692 5693 5694 5695 5696 5697 5698 5698 5697 5698 5698 5699 5700 5701 5701 5702 5703 5705 5705 5706 5706 5706 5707 5707 5705 5705 5705 5703 5701 5699 5697 5695 5692 5690 5688 5685 5681
5639 5642 5645 5648 5652 5656 5658 5661 5664 5667 5671 5674 5677 5681 5683 5685 5687 5689 5691 5692 5693 5694 5695 5696 5697 5696 5696 5697 5697 5699 5701 5702 5702 5704 5704 5703 5703 5704 5705 5705 5705 5704 5703 5702 5701 5699 5697 5695 5692 5690 5687 5684 5680 5676
5641 5644 5647 5650 5652 5654 5658 5661 5664 5667 5670 5673 5676 5678 5681 5684 5686 5688 5688 5689 5690 5692 5693 5694 5696 5696 5696 5698 5699 5700 5701 5702 5702 5702 5702 5702 5702 5703 5703 5703 5702 5701 5700 5699 5698 5696 5694 5692 5689 5685 5682 5678 5675 5671
Wind_Speed
22 22 25 21 23 26 25 25 23 24 23 23 20 24 14 11 8 7 5 5 8 10 12 13 15 25 34 34 41 37 33 28 29 23 18 21 24 24 23 24 26 26 25 23 25 25 22 23 26 26 29 32 34 37
21 21 21 26 27 27 25 22 22 23 23 21 19 22 12 10 8 10 9 9 13 13 11 11 13 20 30 31 33 37 35 31 28 23 21 22 28 23 25 28 27 26 25 23 20 17 16 19 22 26 29 32 35 35
27 24 26 28 28 29 28 21 19 21 22 19 18 18 10 8 9 10 11 8 11 9 8 10 11 8 11 21 28 35 37 24 23 26 28 23 20 22 24 23 22 21 19 18 18 18 21 23 25 28 29 31 34 36
20 24 25 24 25 30 26 20 18 20 20 18 17 14 9 8 8 14 11 7 10 8 7 12 11 10 8 11 13 18 26 26 31 25 20 18 20 18 18 19 19 17 16 16 19 21 24 26 27 27 29 33 37 39
24 21 21 23 26 26 22 19 18 20 18 16 16 12 9 8 9 16 16 12 11 11 8 11 12 14 15 17 15 16 18 22 21 14 14 16 14 12 12 14 16 16 18 20 20 23 26 29 25 29 33 35 38 40
16 16 16 17 19 20 20 17 17 18 15 14 14 11 10 7 8 10 16 13 10 10 12 13 13 13 14 14 15 16 17 18 14 12 10 8 11 14 15 14 15 17 16 18 22 27 21 26 31 38 36 37 40 39
15 14 17 18 22 21 18 17 18 17 14 13 12 11 10 8 7 8 15 14 12 12 12 13 14 15 13 13 15 17 15 11 7 6 7 9 11 12 12 11 12 13 14 16 21 21 21 23 27 32 35 37 37 33
17 15 17 19 19 21 18 17 18 16 13 12 11 12 12 10 9 11 14 14 15 13 12 12 13 14 15 15 16 13 9 7 7 6 6 8 9 10 11 12 12 15 14 18 22 24 26 28 31 32 33 33 30 23
21 18 19 21 24 22 19 18 21 15 12 12 11 13 13 12 12 13 16 14 14 13 14 14 15 13 14 13 12 11 10 9 7 5 5 8 8 9 11 12 15 15 18 22 23 25 27 30 28 29 31 25 21 17
23 22 21 20 26 24 21 17 20 16 13 12 11 13 14 14 15 14 16 14 11 12 14 12 12 14 14 14 12 11 11 9 6 5 6 8 8 8 8 9 11 13 17 21 22 22 24 25 27 29 26 17 16 13
26 25 24 22 23 22 22 20 19 15 14 14 12 14 15 16 16 16 15 14 12 11 13 13 13 12 13 13 10 11 11 9 7 6 6 8 8 8 6 7 11 14 17 20 21 19 21 24 25 26 21 15 12 10
28 27 25 24 23 21 20 19 20 17 16 13 13 15 15 15 17 18 17 14 12 11 13 14 12 12 13 13 12 11 11 10 7 7 6 8 8 7 7 9 13 15 17 21 20 19 19 23 25 24 23 14 10 8
30 29 25 24 22 23 22 19 20 19 18 15 15 15 15 16 17 18 16 16 13 13 15 15 14 14 13 11 10 10 10 10 9 8 7 7 7 6 8 10 13 17 19 19 18 16 16 20 24 24 25 19 10 6
32 30 25 23 24 23 18 20 22 21 20 18 16 16 16 15 17 21 20 16 13 12 14 16 18 16 14 13 11 9 9 9 9 10 8 8 7 7 8 10 13 16 17 18 17 17 17 20 20 22 24 24 20 13
34 31 25 24 25 24 19 22 24 22 21 20 18 16 15 14 17 19 19 17 15 13 14 16 16 15 16 14 12 10 9 9 11 11 10 10 9 10 9 10 12 14 16 17 18 13 15 18 21 21 21 21 20 19
34 28 24 23 23 22 20 23 22 22 21 20 19 16 15 16 17 19 21 19 16 15 14 15 14 15 13 13 12 13 11 11 12 14 12 11 10 12 11 12 13 13 14 16 18 16 13 15 17 18 20 20 19 16
30 25 27 26 24 22 23 23 22 21 19 17 18 17 17 17 18 19 20 18 15 14 12 14 16 15 13 12 14 15 14 14 15 15 13 10 11 13 12 10 12 14 13 14 15 16 15 14 13 13 15 16 17 17
30 28 26 25 24 25 26 21 20 17 14 19 20 18 16 16 17 18 18 17 14 14 14 16 16 12 12 13 13 13 14 14 15 16 14 12 12 12 13 11 11 13 13 12 13 15 17 18 16 14 14 15 16 14
28 27 25 25 27 28 24 21 18 17 21 22 18 16 17 18 16 17 19 16 13 12 12 11 11 11 13 14 14 14 14 15 21 20 15 17 16 13 12 12 10 12 13 13 15 15 17 19 18 16 15 14 14 14
28 26 27 29 31 25 22 19 20 20 19 17 15 15 16 18 20 16 15 17 14 12 9 11 14 16 16 15 15 14 13 12 6 9 8 9 17 16 13 12 9 10 12 14 15 15 15 17 17 16 14 13 11 10
28 26 32 31 25 23 21 22 23 19 16 16 14 13 15 16 21 19 18 15 11 11 12 14 12 11 14 16 17 17 18 16 14 14 10 9 13 15 13 11 8 11 11 13 14 13 12 12 13 14 13 12 12 12
30 34 29 25 24 22 22 23 22 18 16 14 14 14 16 14 18 20 16 12 15 13 10 10 11 11 14 17 17 16 16 15 18 17 15 17 14 12 11 10 6 9 9 13 13 12 10 10 12 11 11 11 12 13
28 26 25 23 21 21 20 19 19 18 16 14 13 14 16 14 17 16 15 16 13 10 9 11 12 12 13 16 14 14 14 12 13 12 16 19 16 15 11 6 5 8 8 10 11 11 9 10 9 10 11 12 14 15
25 24 22 20 19 16 18 17 18 18 15 14 13 15 15 15 16 16 17 13 10 10 9 9 10 13 14 13 12 11 6 7 9 8 6 23 18 13 10 4 5 7 8 9 11 11 9 10 9 9 11 13 14 15
21 21 20 19 17 16 15 16 18 16 15 15 14 17 18 18 16 15 13 9 10 9 7 8 10 9 9 12 11 10 10 8 7 7 11 14 13 9 8 6 6 6 6 6 7 8 8 8 6 7 10 13 15 17
19 20 20 20 19 19 17 15 18 18 17 14 16 21 19 15 13 11 10 11 10 8 9 10 9 7 7 9 11 9 9 9 9 10 12 12 11 10 9 9 6 8 8 6 4 7 7 6 7 9 12 14 15 18
18 18 19 20 21 20 19 17 18 17 17 16 20 23 18 15 11 10 10 10 8 8 8 7 8 9 9 10 6 8 4 4 8 10 12 12 10 11 8 8 6 7 7 7 6 7 7 7 9 11 13 15 17 19
18 20 21 22 22 21 19 17 19 18 18 16 20 21 21 9 10 14 12 8 7 8 8 7 8 9 7 3 2 5 6 5 7 11 12 10 10 11 10 7 6 8 8 6 6 7 7 9 9 11 14 17 19 20
18 20 21 21 20 18 17 18 19 20 20 15 19 22 18 15 14 16 13 8 6 8 7 5 5 5 6 8 8 7 5 3 8 9 6 4 5 6 6 6 9 9 5 4 6 7 9 11 13 15 19 21 22 24
18 20 21 20 19 20 21 22 22 22 16 18 21 21 17 15 10 12 11 8 4 5 6 5 6 6 7 7 7 7 5 4 3 5 5 5 6 6 7 6 5 4 4 5 8 11 11 13 15 17 19 21 23 24
18 18 17 18 20 20 20 19 18 20 23 19 14 16 11 11 12 12 10 8 7 7 3 5 5 2 2 3 3 8 10 9 7 6 7 6 6 6 5 6 7 5 5 6 8 10 11 14 17 19 21 21 22 23
15 14 14 16 17 16 17 20 16 17 16 15 15 13 15 17 13 9 7 7 8 9 7 5 5 4 5 6 9 9 8 8 7 5 3 5 6 6 4 4 4 5 7 9 10 11 13 15 17 19 19 19 20 23
15 14 15 15 14 16 18 16 19 19 16 16 15 15 15 12 10 9 9 9 6 8 6 5 4 7 8 6 6 8 6 3 2 1 2 2 2 2 3 4 4 6 8 11 13 15 16 17 18 18 18 19 21 24
Wind_Direction
280 289 294 294 306 301 296 299 301 298 307 317 326 318 303 302 289 272 261 237 199 203 201 213 213 210 215 218 228 236 241 236 238 230 233 249 257 265 268 270 275 278 279 276 278 280 273 269 262 257 253 258 269 275
281 293 289 297 306 306 295 295 298 297 305 315 323 314 301 298 252 259 257 250 229 233 238 227 215 225 218 219 227 234 233 238 237 226 230 248 251 254 267 272 277 277 278 284 284 280 275 277 282 280 281 282 281 283
285 292 292 294 299 295 302 290 293 294 300 312 317 308 290 295 235 248 254 249 206 198 213 219 184 195 213 230 233 235 225 233 223 235 266 257 263 266 269 271 273 280 284 288 289 295 290 285 281 282 286 289 291 288
288 301 297 296 284 292 297 287 291 290 297 307 311 297 274 267 255 236 235 210 197 202 181 181 192 197 201 203 205 212 225 239 245 243 247 262 265 267 271 269 272 280 288 292 293 293 294 287 286 289 294 295 294 292
287 292 298 295 291 294 292 282 288 288 293 302 304 281 264 260 258 228 228 228 231 219 213 193 172 159 156 155 159 173 190 206 227 239 249 253 258 264 273 280 292 292 287 291 297 311 314 294 289 302 304 299 294 298
274 297 301 316 316 300 287 287 292 285 288 296 295 267 250 257 264 229 215 231 191 180 185 191 175 175 187 182 187 196 207 220 226 225 238 277 290 283 280 279 278 282 293 308 306 304 315 293 293 300 301 300 298 295
275 290 292 307 310 308 287 292 297 279 282 290 285 254 239 249 229 212 204 202 201 195 193 186 185 188 192 192 184 197 201 198 204 241 261 270 280 278 280 283 285 290 295 304 306 313 312 305 303 303 305 301 295 292
273 281 293 298 304 313 295 292 296 272 275 283 272 243 235 234 221 216 205 204 194 189 193 192 193 199 199 197 186 191 189 204 224 250 265 289 291 282 281 288 289 292 309 314 315 320 323 324 320 315 311 304 296 289
269 287 286 289 293 296 297 289 301 258 265 273 260 235 230 226 219 214 212 200 196 193 190 194 202 203 196 190 189 201 210 217 235 252 283 308 299 289 296 304 310 308 323 323 324 327 329 323 321 321 317 302 288 286
273 285 287 289 285 287 282 283 286 263 257 261 250 229 227 223 218 207 216 214 211 205 196 201 198 193 195 198 208 215 213 219 237 265 296 314 311 307 313 314 334 322 329 332 329 326 325 329 328 327 321 300 298 296
272 281 287 287 294 285 274 271 281 246 243 255 237 226 225 225 219 211 209 218 224 213 195 195 200 201 200 204 216 221 219 221 233 264 298 321 310 318 322 332 338 343 340 338 332 332 339 338 340 339 328 304 301 314
270 277 282 286 292 289 274 266 273 230 236 247 233 227 229 222 217 212 207 211 221 218 202 201 202 203 203 209 222 226 220 226 239 265 295 315 302 320 333 337 344 343 338 344 341 342 348 357 360 355 348 325 301 280
265 271 278 281 286 291 275 260 259 213 229 238 234 229 227 221 220 212 207 207 212 219 214 210 209 211 212 216 229 231 227 233 241 256 275 298 290 314 325 333 343 349 348 346 347 345 349 351 359 6 9 5 354 309
262 267 271 275 275 289 273 257 238 207 226 230 233 232 227 224 217 211 209 208 217 226 220 218 220 220 221 228 235 231 233 237 242 247 260 284 272 278 301 326 338 345 350 349 351 357 354 354 357 3 15 24 27 27
258 262 269 272 275 273 261 263 216 210 223 229 235 234 230 227 221 215 213 213 220 226 223 221 221 223 224 232 236 237 235 238 242 244 250 272 273 273 293 314 324 342 354 351 354 357 10 14 13 3 4 15 29 34
253 257 261 272 266 261 258 236 202 218 223 230 234 232 228 227 216 211 209 213 220 232 228 222 224 229 224 230 228 231 232 238 241 242 251 268 280 280 281 298 320 336 349 350 356 359 353 1 7 10 15 14 14 20
253 248 263 266 258 255 237 195 210 219 228 235 230 227 225 222 214 214 213 213 221 231 232 222 218 222 224 222 217 225 230 235 234 234 240 262 284 294 292 299 312 323 330 346 357 1 359 347 351 358 9 14 18 22
243 247 251 247 247 246 198 199 214 223 222 222 219 217 218 213 209 207 208 214 220 228 221 211 218 221 219 216 225 225 235 243 250 254 247 249 261 281 294 295 302 310 317 328 342 351 359 358 354 351 352 355 358 4
244 237 234 238 227 189 190 206 210 209 218 224 216 209 209 206 202 203 207 210 217 220 221 216 213 210 214 220 233 237 248 258 240 237 246 243 251 265 279 281 289 301 310 324 339 341 357 355 353 351 344 343 345 344
232 225 223 216 185 187 200 200 206 216 219 215 211 209 207 199 192 205 202 205 211 217 228 218 219 235 246 253 263 267 264 268 292 257 281 254 223 252 268 275 283 299 311 323 330 340 346 344 346 345 344 343 335 337
216 217 200 174 187 195 195 199 203 209 211 212 200 205 212 208 205 205 203 198 204 210 206 218 240 258 264 270 276 276 273 262 258 256 267 253 258 259 255 270 285 291 309 321 322 336 331 332 344 346 350 341 334 335
197 176 171 185 190 192 198 202 205 210 211 204 200 207 210 209 207 207 201 202 215 219 232 247 258 271 277 278 277 277 276 265 253 260 257 248 244 216 233 257 285 297 313 315 321 329 326 331 348 350 346 348 343 346
162 175 182 184 188 196 198 199 204 208 206 203 201 206 209 212 206 198 202 213 220 226 242 257 266 275 278 280 273 271 272 258 251 255 242 242 209 204 214 232 289 301 312 310 315 323 324 325 350 353 352 355 356 359
174 178 181 184 189 190 192 198 204 204 199 199 202 203 201 197 187 193 212 217 215 220 236 268 288 295 287 280 271 284 256 289 259 277 281 188 197 201 204 217 280 291 299 293 303 314 316 326 355 352 345 347 351 352
182 186 187 190 190 188 193 198 198 195 198 198 200 192 189 181 185 200 206 205 223 233 254 279 281 269 262 264 264 263 258 259 251 256 214 202 209 213 210 220 282 298 288 296 292 300 315 315 340 340 337 341 343 340
191 191 193 196 192 194 200 202 196 196 197 195 198 187 188 192 195 202 215 226 234 260 279 280 273 283 283 282 262 280 263 267 241 228 208 205 206 232 230 217 255 293 287 289 305 308 317 334 343 337 342 340 338 339
194 195 198 200 201 203 205 200 196 195 192 194 193 188 192 196 199 205 212 209 229 250 270 264 266 283 314 324 257 202 227 232 222 210 208 213 218 227 236 235 244 263 278 297 318 309 325 336 339 337 339 343 345 345
202 198 200 201 200 200 200 197 194 197 196 197 196 193 185 182 197 202 202 229 240 269 254 251 264 271 286 273 142 147 159 158 168 180 186 200 215 211 233 270 304 308 305 308 304 299 310 321 334 341 344 343 342 340
203 203 202 202 200 201 196 196 198 198 198 206 197 189 191 197 210 200 198 215 249 247 261 270 265 270 258 248 221 193 190 220 224 205 189 205 214 227 244 284 294 291 291 294 285 295 322 335 339 347 344 335 332 334
201 201 204 204 204 202 195 195 199 199 202 191 186 194 199 210 201 214 242 258 248 245 261 250 264 270 260 254 251 267 250 245 214 185 207 213 208 232 267 286 279 267 273 314 316 315 327 330 333 335 330 322 325 329
200 201 198 199 200 197 194 194 193 206 200 189 182 185 202 204 196 210 231 245 255 223 222 252 254 200 138 145 222 235 231 215 192 182 180 191 215 242 261 276 275 296 303 304 312 322 326 327 328 326 322 322 323 325
182 178 181 186 189 187 190 191 206 195 189 188 186 200 195 191 192 212 230 229 239 230 223 220 234 218 182 178 154 167 164 158 166 180 239 261 255 247 249 259 279 301 313 315 317 325 329 325 319 319 321 320 321 326
166 163 168 176 183 191 191 191 184 180 181 192 198 194 194 193 196 214 226 222 226 231 211 197 221 201 183 172 170 165 157 156 179 201 206 204 218 256 278 282 296 319 328 330 332 330 328 328 328 325 321 322 325 327